Time,TemperatureF,DewpointF,PressureIn,WindDirection,WindDirectionDegrees,WindSpeedMPH,WindSpeedGustMPH,Humidity,HourlyPrecipIn,Conditions,Clouds,dailyrainin,SoftwareType,DateUTC
2013-02-26 00:00:00,38.1,30.9,30.19,NE,45,2.0,4.0,75,0.00,,,0.00,meteohub,2013-02-26 05:00:00,
2013-02-26 00:01:00,38.1,30.9,30.19,East,90,3.0,4.0,75,0.00,,,0.00,meteohub,2013-02-26 05:01:00,
2013-02-26 00:06:00,38.3,30.7,30.19,NW,315,2.0,4.0,74,0.00,,,0.00,meteohub,2013-02-26 05:06:00,
2013-02-26 00:11:00,38.3,30.4,30.19,NE,45,2.0,4.0,73,0.00,,,0.00,meteohub,2013-02-26 05:11:00,
2013-02-26 00:16:00,38.3,30.0,30.19,NW,315,2.0,4.0,72,0.00,,,0.00,meteohub,2013-02-26 05:16:00,
2013-02-26 00:21:00,38.3,30.0,30.19,West,270,3.0,4.0,72,0.00,,,0.00,meteohub,2013-02-26 05:21:00,
2013-02-26 00:26:00,38.5,30.2,30.19,NE,45,2.0,4.0,72,0.00,,,0.00,meteohub,2013-02-26 05:26:00,
2013-02-26 00:31:00,38.5,30.2,30.19,NE,45,3.0,3.0,72,0.00,,,0.00,meteohub,2013-02-26 05:31:00,
2013-02-26 00:36:00,38.5,29.8,30.19,SE,135,3.0,3.0,71,0.00,,,0.00,meteohub,2013-02-26 05:36:00,
2013-02-26 00:41:00,38.5,30.2,30.18,NE,45,2.0,3.0,72,0.00,,,0.00,meteohub,2013-02-26 05:41:00,
2013-02-26 00:46:00,38.3,29.7,30.18,East,90,2.0,4.0,71,0.00,,,0.00,meteohub,2013-02-26 05:46:00,
2013-02-26 00:51:00,38.3,30.0,30.18,West,270,4.0,4.0,72,0.00,,,0.00,meteohub,2013-02-26 05:51:00,
2013-02-26 00:56:00,38.3,29.7,30.18,North,0,4.0,4.0,71,0.00,,,0.00,meteohub,2013-02-26 05:56:00,
2013-02-26 01:02:00,38.3,30.0,30.19,NE,45,3.0,4.0,72,0.00,,,0.00,meteohub,2013-02-26 06:02:00,
2013-02-26 01:07:00,38.3,30.0,30.19,NE,45,3.0,4.0,72,0.00,,,0.00,meteohub,2013-02-26 06:07:00,
2013-02-26 01:12:00,38.3,29.7,30.18,NE,45,1.0,4.0,71,0.00,,,0.00,meteohub,2013-02-26 06:12:00,
2013-02-26 01:17:00,38.3,30.0,30.19,NE,45,3.0,4.0,72,0.00,,,0.00,meteohub,2013-02-26 06:17:00,
2013-02-26 01:22:00,38.3,30.0,30.19,West,270,2.0,4.0,72,0.00,,,0.00,meteohub,2013-02-26 06:22:00,
2013-02-26 01:27:00,38.3,29.7,30.18,NE,45,2.0,4.0,71,0.00,,,0.00,meteohub,2013-02-26 06:27:00,
2013-02-26 01:32:00,38.3,29.7,30.19,NE,45,2.0,4.0,71,0.00,,,0.00,meteohub,2013-02-26 06:32:00,
2013-02-26 01:37:00,38.3,29.3,30.18,NE,45,2.0,4.0,70,0.00,,,0.00,meteohub,2013-02-26 06:37:00,
2013-02-26 01:42:00,38.3,29.3,30.18,NW,315,2.0,6.0,70,0.00,,,0.00,meteohub,2013-02-26 06:42:00,
2013-02-26 01:47:00,38.3,29.7,30.18,NE,45,2.0,6.0,71,0.00,,,0.00,meteohub,2013-02-26 06:47:00,
2013-02-26 01:52:00,38.3,29.3,30.17,NE,45,2.0,4.0,70,0.00,,,0.00,meteohub,2013-02-26 06:52:00,
2013-02-26 01:57:00,38.3,29.3,30.17,NE,45,2.0,4.0,70,0.00,,,0.00,meteohub,2013-02-26 06:57:00,
2013-02-26 02:02:00,38.3,29.3,30.17,NE,45,2.0,4.0,70,0.00,,,0.00,meteohub,2013-02-26 07:02:00,
2013-02-26 02:07:00,38.3,29.3,30.16,North,0,2.0,4.0,70,0.00,,,0.00,meteohub,2013-02-26 07:07:00,
2013-02-26 02:12:00,38.3,29.3,30.15,NE,45,3.0,3.0,70,0.00,,,0.00,meteohub,2013-02-26 07:12:00,
2013-02-26 02:17:00,38.3,28.9,30.14,NW,315,2.0,4.0,69,0.00,,,0.00,meteohub,2013-02-26 07:17:00,
2013-02-26 02:22:00,38.3,28.9,30.14,NE,45,2.0,4.0,69,0.00,,,0.00,meteohub,2013-02-26 07:22:00,
2013-02-26 02:27:00,38.3,28.9,30.14,NE,45,2.0,4.0,69,0.00,,,0.00,meteohub,2013-02-26 07:27:00,
2013-02-26 02:32:00,38.3,29.3,30.14,East,90,2.0,3.0,70,0.00,,,0.00,meteohub,2013-02-26 07:32:00,
2013-02-26 02:37:00,38.3,29.3,30.14,West,270,2.0,3.0,70,0.00,,,0.00,meteohub,2013-02-26 07:37:00,
2013-02-26 02:42:00,38.3,28.9,30.14,NE,45,2.0,3.0,69,0.00,,,0.00,meteohub,2013-02-26 07:42:00,
2013-02-26 02:47:00,38.3,28.9,30.15,East,90,2.0,3.0,69,0.00,,,0.00,meteohub,2013-02-26 07:47:00,
2013-02-26 02:52:00,38.5,29.1,30.15,SW,225,4.0,4.0,69,0.00,,,0.00,meteohub,2013-02-26 07:52:00,
2013-02-26 02:57:00,38.5,29.1,30.15,West,270,2.0,4.0,69,0.00,,,0.00,meteohub,2013-02-26 07:57:00,
2013-02-26 03:02:00,38.3,28.9,30.14,NE,45,4.0,4.0,69,0.00,,,0.00,meteohub,2013-02-26 08:02:00,
2013-02-26 03:07:00,38.5,29.1,30.14,NE,45,2.0,4.0,69,0.00,,,0.00,meteohub,2013-02-26 08:07:00,
2013-02-26 03:12:00,38.3,28.9,30.13,NE,45,2.0,5.0,69,0.00,,,0.00,meteohub,2013-02-26 08:12:00,
2013-02-26 03:18:00,38.3,29.3,30.13,NE,45,3.0,5.0,70,0.00,,,0.00,meteohub,2013-02-26 08:18:00,
2013-02-26 03:23:00,38.3,29.3,30.12,NE,45,2.0,5.0,70,0.00,,,0.00,meteohub,2013-02-26 08:23:00,
2013-02-26 03:28:00,38.3,29.3,30.12,NE,45,4.0,4.0,70,0.00,,,0.00,meteohub,2013-02-26 08:28:00,
2013-02-26 03:33:00,38.3,29.7,30.12,West,270,2.0,4.0,71,0.00,,,0.00,meteohub,2013-02-26 08:33:00,
2013-02-26 03:38:00,38.1,30.2,30.11,South,180,2.0,4.0,73,0.00,,,0.00,meteohub,2013-02-26 08:38:00,
2013-02-26 03:43:00,37.9,30.0,30.10,West,270,2.0,4.0,73,0.00,,,0.00,meteohub,2013-02-26 08:43:00,
2013-02-26 03:48:00,37.8,30.2,30.10,NE,45,2.0,4.0,74,0.00,,,0.00,meteohub,2013-02-26 08:48:00,
2013-02-26 03:53:00,37.8,30.6,30.10,NE,45,2.0,4.0,75,0.00,,,0.00,meteohub,2013-02-26 08:53:00,
2013-02-26 03:58:00,37.8,30.6,30.09,NW,315,2.0,3.0,75,0.00,,,0.00,meteohub,2013-02-26 08:58:00,
2013-02-26 04:03:00,37.8,30.6,30.09,NE,45,2.0,2.0,75,0.00,,,0.00,meteohub,2013-02-26 09:03:00,
2013-02-26 04:08:00,37.8,30.6,30.09,West,270,2.0,4.0,75,0.00,,,0.00,meteohub,2013-02-26 09:08:00,
2013-02-26 04:13:00,37.8,30.6,30.08,NE,45,3.0,4.0,75,0.00,,,0.00,meteohub,2013-02-26 09:13:00,
2013-02-26 04:18:00,37.8,30.6,30.08,North,0,3.0,3.0,75,0.00,,,0.00,meteohub,2013-02-26 09:18:00,
2013-02-26 04:23:00,37.8,30.6,30.08,North,0,2.0,3.0,75,0.00,,,0.00,meteohub,2013-02-26 09:23:00,
2013-02-26 04:28:00,37.8,30.6,30.09,NW,315,3.0,5.0,75,0.00,,,0.00,meteohub,2013-02-26 09:28:00,
2013-02-26 04:33:00,37.8,30.6,30.09,East,90,2.0,5.0,75,0.00,,,0.00,meteohub,2013-02-26 09:33:00,
2013-02-26 04:39:00,37.8,30.6,30.09,NE,45,1.0,5.0,75,0.00,,,0.00,meteohub,2013-02-26 09:39:00,
2013-02-26 04:44:00,37.8,30.9,30.10,NW,315,4.0,4.0,76,0.00,,,0.00,meteohub,2013-02-26 09:44:00,
2013-02-26 04:49:00,37.9,31.1,30.11,NW,315,2.0,4.0,76,0.00,,,0.00,meteohub,2013-02-26 09:49:00,
2013-02-26 04:54:00,37.9,31.1,30.10,NE,45,2.0,4.0,76,0.00,,,0.00,meteohub,2013-02-26 09:54:00,
2013-02-26 04:59:00,38.1,31.6,30.10,North,0,2.0,4.0,77,0.00,,,0.00,meteohub,2013-02-26 09:59:00,
2013-02-26 05:04:00,38.1,31.6,30.10,NE,45,2.0,4.0,77,0.00,,,0.00,meteohub,2013-02-26 10:04:00,
2013-02-26 05:09:00,38.1,31.6,30.08,NW,315,2.0,4.0,77,0.00,,,0.00,meteohub,2013-02-26 10:09:00,
2013-02-26 05:14:00,38.1,31.6,30.07,North,0,2.0,4.0,77,0.00,,,0.00,meteohub,2013-02-26 10:14:00,
2013-02-26 05:19:00,38.1,31.8,30.07,West,270,6.0,6.0,78,0.00,,,0.00,meteohub,2013-02-26 10:19:00,
2013-02-26 05:24:00,38.1,31.8,30.07,East,90,2.0,4.0,78,0.00,,,0.00,meteohub,2013-02-26 10:24:00,
2013-02-26 05:29:00,38.1,32.2,30.07,East,90,2.0,6.0,79,0.00,,,0.00,meteohub,2013-02-26 10:29:00,
2013-02-26 05:34:00,38.3,32.7,30.07,NE,45,2.0,6.0,80,0.00,,,0.00,meteohub,2013-02-26 10:34:00,
2013-02-26 05:39:00,38.3,32.7,30.08,NW,315,3.0,6.0,80,0.00,,,0.00,meteohub,2013-02-26 10:39:00,
2013-02-26 05:44:00,38.3,32.9,30.07,NE,45,2.0,6.0,81,0.00,,,0.00,meteohub,2013-02-26 10:44:00,
2013-02-26 05:50:00,38.3,32.9,30.07,NE,45,3.0,4.0,81,0.00,,,0.00,meteohub,2013-02-26 10:50:00,
2013-02-26 05:55:00,38.3,33.3,30.06,NW,315,2.0,4.0,82,0.00,,,0.00,meteohub,2013-02-26 10:55:00,
2013-02-26 06:00:00,38.3,33.3,30.07,NE,45,2.0,4.0,82,0.00,,,0.00,meteohub,2013-02-26 11:00:00,
2013-02-26 06:05:00,38.3,33.3,30.06,NW,315,4.0,4.0,82,0.00,,,0.00,meteohub,2013-02-26 11:05:00,
2013-02-26 06:10:00,38.3,33.6,30.06,NE,45,2.0,4.0,83,0.00,,,0.00,meteohub,2013-02-26 11:10:00,
2013-02-26 06:15:00,38.5,33.8,30.07,NW,315,2.0,5.0,83,0.00,,,0.00,meteohub,2013-02-26 11:15:00,
2013-02-26 06:20:00,38.5,34.2,30.07,North,0,2.0,5.0,84,0.00,,,0.00,meteohub,2013-02-26 11:20:00,
2013-02-26 06:25:00,38.3,34.2,30.08,East,90,4.0,5.0,85,0.00,,,0.00,meteohub,2013-02-26 11:25:00,
2013-02-26 06:30:00,38.3,34.5,30.07,West,270,3.0,4.0,86,0.00,,,0.00,meteohub,2013-02-26 11:30:00,
2013-02-26 06:35:00,38.1,34.5,30.08,NE,45,4.0,4.0,87,0.00,,,0.00,meteohub,2013-02-26 11:35:00,
2013-02-26 06:40:00,37.8,34.5,30.07,NW,315,3.0,4.0,88,0.00,,,0.00,meteohub,2013-02-26 11:40:00,
2013-02-26 06:45:00,37.6,34.9,30.07,NE,45,2.0,4.0,90,0.00,,,0.00,meteohub,2013-02-26 11:45:00,
2013-02-26 06:50:00,37.4,35.2,30.07,North,0,2.0,4.0,92,0.01,,,0.01,meteohub,2013-02-26 11:50:00,
2013-02-26 06:55:00,37.2,34.5,30.07,NE,45,2.0,3.0,90,0.01,,,0.01,meteohub,2013-02-26 11:55:00,
2013-02-26 07:00:00,37.0,34.7,30.06,North,0,2.0,2.0,91,0.02,,,0.02,meteohub,2013-02-26 12:00:00,
2013-02-26 07:05:00,37.0,35.2,30.06,NE,45,2.0,2.0,93,0.05,,,0.04,meteohub,2013-02-26 12:05:00,
2013-02-26 07:11:00,36.9,35.2,30.06,NE,45,2.0,2.0,94,0.05,,,0.05,meteohub,2013-02-26 12:11:00,
2013-02-26 07:16:00,36.9,35.6,30.06,SW,225,3.0,3.0,95,0.05,,,0.05,meteohub,2013-02-26 12:16:00,
2013-02-26 07:21:00,37.0,36.0,30.06,NE,45,1.0,3.0,96,0.05,,,0.05,meteohub,2013-02-26 12:21:00,
2013-02-26 07:26:00,37.0,36.0,30.06,East,90,2.0,3.0,96,0.06,,,0.06,meteohub,2013-02-26 12:26:00,
2013-02-26 07:31:00,36.9,36.1,30.06,NE,45,2.0,3.0,97,0.07,,,0.07,meteohub,2013-02-26 12:31:00,
2013-02-26 07:36:00,36.9,36.1,30.05,SW,225,5.0,5.0,97,0.07,,,0.07,meteohub,2013-02-26 12:36:00,
2013-02-26 07:41:00,36.9,36.1,30.05,East,90,2.0,5.0,97,0.09,,,0.09,meteohub,2013-02-26 12:41:00,
2013-02-26 07:46:00,36.9,36.1,30.05,East,90,2.0,5.0,97,0.09,,,0.09,meteohub,2013-02-26 12:46:00,
2013-02-26 07:51:00,36.9,36.1,30.04,NE,45,2.0,5.0,97,0.08,,,0.09,meteohub,2013-02-26 12:51:00,
2013-02-26 07:56:00,36.9,36.1,30.04,NE,45,2.0,4.0,97,0.07,,,0.09,meteohub,2013-02-26 12:56:00,
2013-02-26 08:01:00,36.9,36.1,30.04,NE,45,2.0,3.0,97,0.07,,,0.09,meteohub,2013-02-26 13:01:00,
2013-02-26 08:06:00,37.0,36.3,30.04,East,90,2.0,3.0,97,0.06,,,0.11,meteohub,2013-02-26 13:06:00,
2013-02-26 08:11:00,37.0,36.3,30.04,East,90,2.0,6.0,97,0.06,,,0.11,meteohub,2013-02-26 13:11:00,
2013-02-26 08:16:00,37.2,36.5,30.03,West,270,3.0,6.0,97,0.06,,,0.11,meteohub,2013-02-26 13:16:00,
2013-02-26 08:21:00,37.2,36.5,30.03,NE,45,4.0,6.0,97,0.05,,,0.11,meteohub,2013-02-26 13:21:00,
2013-02-26 08:26:00,37.4,37.2,30.03,NE,45,2.0,4.0,99,0.05,,,0.11,meteohub,2013-02-26 13:26:00,
2013-02-26 08:31:00,37.4,37.2,30.03,NE,45,2.0,4.0,99,0.05,,,0.12,meteohub,2013-02-26 13:31:00,
2013-02-26 08:37:00,37.6,37.4,30.03,NE,45,2.0,4.0,99,0.04,,,0.12,meteohub,2013-02-26 13:37:00,
2013-02-26 08:42:00,37.9,37.8,30.02,NE,45,2.0,5.0,99,0.02,,,0.12,meteohub,2013-02-26 13:42:00,
2013-02-26 08:47:00,38.1,37.9,30.01,NE,45,2.0,8.0,99,0.02,,,0.12,meteohub,2013-02-26 13:47:00,
2013-02-26 08:52:00,38.1,37.9,30.01,NE,45,2.0,8.0,99,0.02,,,0.12,meteohub,2013-02-26 13:52:00,
2013-02-26 08:57:00,38.3,38.1,30.01,NE,45,2.0,8.0,99,0.02,,,0.12,meteohub,2013-02-26 13:57:00,
2013-02-26 09:02:00,38.5,38.3,30.01,NW,315,2.0,4.0,99,0.04,,,0.13,meteohub,2013-02-26 14:02:00,
2013-02-26 09:07:00,38.5,38.3,30.02,NE,45,3.0,4.0,99,0.02,,,0.13,meteohub,2013-02-26 14:07:00,
2013-02-26 09:12:00,38.7,38.5,30.02,East,90,2.0,4.0,99,0.04,,,0.14,meteohub,2013-02-26 14:12:00,
2013-02-26 09:17:00,38.8,38.7,30.01,NW,315,3.0,4.0,99,0.04,,,0.14,meteohub,2013-02-26 14:17:00,
2013-02-26 09:22:00,39.0,38.8,30.01,SW,225,2.0,4.0,99,0.04,,,0.14,meteohub,2013-02-26 14:22:00,
2013-02-26 09:27:00,39.2,39.0,30.00,NE,45,2.0,4.0,99,0.05,,,0.15,meteohub,2013-02-26 14:27:00,
2013-02-26 09:32:00,39.6,39.4,30.00,West,270,4.0,4.0,99,0.05,,,0.17,meteohub,2013-02-26 14:32:00,
2013-02-26 09:37:00,39.7,39.6,30.00,NW,315,2.0,4.0,99,0.05,,,0.17,meteohub,2013-02-26 14:37:00,
2013-02-26 09:42:00,39.9,39.7,29.99,East,90,2.0,4.0,99,0.05,,,0.17,meteohub,2013-02-26 14:42:00,
2013-02-26 09:47:00,40.3,40.1,29.98,NE,45,3.0,4.0,99,0.05,,,0.17,meteohub,2013-02-26 14:47:00,
2013-02-26 09:52:00,40.5,40.3,29.97,West,270,3.0,4.0,99,0.06,,,0.18,meteohub,2013-02-26 14:52:00,
2013-02-26 09:57:00,40.6,40.5,29.97,NW,315,1.0,4.0,99,0.06,,,0.18,meteohub,2013-02-26 14:57:00,
2013-02-26 10:02:00,41.0,40.8,29.96,West,270,3.0,4.0,99,0.05,,,0.18,meteohub,2013-02-26 15:02:00,
2013-02-26 10:07:00,41.2,41.0,29.96,SW,225,3.0,4.0,99,0.06,,,0.18,meteohub,2013-02-26 15:07:00,
2013-02-26 10:12:00,41.4,41.2,29.96,East,90,3.0,4.0,99,0.05,,,0.19,meteohub,2013-02-26 15:12:00,
2013-02-26 10:17:00,41.4,41.2,29.96,North,0,5.0,5.0,99,0.05,,,0.19,meteohub,2013-02-26 15:17:00,
2013-02-26 10:22:00,41.5,41.4,29.95,SW,225,3.0,5.0,99,0.05,,,0.20,meteohub,2013-02-26 15:22:00,
2013-02-26 10:27:00,41.7,41.5,29.95,North,0,2.0,5.0,99,0.05,,,0.20,meteohub,2013-02-26 15:27:00,
2013-02-26 10:32:00,41.7,41.5,29.96,NE,45,2.0,5.0,99,0.04,,,0.20,meteohub,2013-02-26 15:32:00,
2013-02-26 10:37:00,41.9,41.7,29.93,NE,45,2.0,4.0,99,0.05,,,0.21,meteohub,2013-02-26 15:37:00,
2013-02-26 10:42:00,42.3,42.1,29.92,West,270,2.0,4.0,99,0.05,,,0.21,meteohub,2013-02-26 15:42:00,
2013-02-26 10:47:00,42.6,42.4,29.92,NE,45,5.0,7.0,99,0.07,,,0.24,meteohub,2013-02-26 15:47:00,
2013-02-26 10:52:00,43.2,42.6,29.91,East,90,2.0,7.0,98,0.06,,,0.24,meteohub,2013-02-26 15:52:00,
2013-02-26 10:57:00,43.2,42.6,29.90,NE,45,11.0,11.0,98,0.08,,,0.26,meteohub,2013-02-26 15:57:00,
2013-02-26 11:02:00,43.3,42.8,29.91,NE,45,11.0,11.0,98,0.08,,,0.26,meteohub,2013-02-26 16:02:00,
2013-02-26 11:07:00,43.3,42.8,29.90,NE,45,8.0,11.0,98,0.07,,,0.26,meteohub,2013-02-26 16:07:00,
2013-02-26 11:12:00,43.5,43.0,29.90,NE,45,6.0,11.0,98,0.08,,,0.27,meteohub,2013-02-26 16:12:00,
2013-02-26 11:17:00,43.7,43.2,29.88,SE,135,4.0,11.0,98,0.08,,,0.27,meteohub,2013-02-26 16:17:00,
2013-02-26 11:22:00,43.9,43.3,29.88,North,0,10.0,10.0,98,0.08,,,0.28,meteohub,2013-02-26 16:22:00,
2013-02-26 11:27:00,44.2,43.7,29.88,West,270,6.0,10.0,98,0.08,,,0.28,meteohub,2013-02-26 16:27:00,
2013-02-26 11:32:00,44.8,44.1,29.88,NE,45,4.0,10.0,97,0.08,,,0.28,meteohub,2013-02-26 16:32:00,
2013-02-26 11:37:00,45.1,44.4,29.87,West,270,3.0,10.0,97,0.08,,,0.30,meteohub,2013-02-26 16:37:00,
2013-02-26 11:42:00,45.5,44.8,29.87,NE,45,10.0,10.0,97,0.07,,,0.30,meteohub,2013-02-26 16:42:00,
2013-02-26 11:47:00,45.9,45.1,29.87,South,180,5.0,10.0,97,0.07,,,0.31,meteohub,2013-02-26 16:47:00,
2013-02-26 11:52:00,46.0,45.3,29.86,East,90,5.0,10.0,97,0.08,,,0.32,meteohub,2013-02-26 16:52:00,
2013-02-26 11:58:00,46.2,45.5,29.86,NE,45,3.0,10.0,97,0.06,,,0.32,meteohub,2013-02-26 16:58:00,
2013-02-26 12:03:00,46.2,45.5,29.85,SW,225,4.0,12.0,97,0.08,,,0.34,meteohub,2013-02-26 17:03:00,
2013-02-26 12:08:00,46.2,45.5,29.85,East,90,4.0,12.0,97,0.09,,,0.35,meteohub,2013-02-26 17:08:00,
2013-02-26 12:13:00,46.6,46.4,29.85,East,90,5.0,12.0,99,0.08,,,0.35,meteohub,2013-02-26 17:13:00,
2013-02-26 12:18:00,47.1,46.9,29.84,West,270,5.0,10.0,99,0.08,,,0.37,meteohub,2013-02-26 17:18:00,
2013-02-26 12:23:00,47.3,47.1,29.83,NW,315,3.0,11.0,99,0.09,,,0.38,meteohub,2013-02-26 17:23:00,
2013-02-26 12:28:00,47.8,47.7,29.82,NE,45,4.0,11.0,99,0.09,,,0.38,meteohub,2013-02-26 17:28:00,
2013-02-26 12:33:00,48.2,48.0,29.82,East,90,5.0,11.0,99,0.11,,,0.39,meteohub,2013-02-26 17:33:00,
2013-02-26 12:38:00,48.6,48.4,29.81,NE,45,4.0,8.0,99,0.09,,,0.39,meteohub,2013-02-26 17:38:00,
2013-02-26 12:43:00,48.9,48.7,29.80,East,90,6.0,8.0,99,0.09,,,0.39,meteohub,2013-02-26 17:43:00,
2013-02-26 12:48:00,49.3,49.1,29.79,North,0,8.0,8.0,99,0.09,,,0.40,meteohub,2013-02-26 17:48:00,
2013-02-26 12:53:00,49.5,49.3,29.78,NE,45,5.0,8.0,99,0.08,,,0.40,meteohub,2013-02-26 17:53:00,
2013-02-26 12:58:00,49.8,49.5,29.77,East,90,6.0,12.0,99,0.07,,,0.40,meteohub,2013-02-26 17:58:00,
2013-02-26 13:03:00,50.0,49.6,29.77,East,90,5.0,12.0,99,0.05,,,0.40,meteohub,2013-02-26 18:03:00,
2013-02-26 13:08:00,50.0,49.6,29.76,NE,45,11.0,12.0,99,0.05,,,0.40,meteohub,2013-02-26 18:08:00,
2013-02-26 13:13:00,50.2,49.8,29.76,NW,315,2.0,11.0,99,0.06,,,0.41,meteohub,2013-02-26 18:13:00,
2013-02-26 13:18:00,50.4,50.0,29.75,NE,45,8.0,11.0,99,0.05,,,0.41,meteohub,2013-02-26 18:18:00,
2013-02-26 13:23:00,50.5,50.2,29.75,North,0,5.0,11.0,99,0.04,,,0.41,meteohub,2013-02-26 18:23:00,
2013-02-26 13:28:00,50.7,50.4,29.74,NW,315,10.0,15.0,99,0.04,,,0.41,meteohub,2013-02-26 18:28:00,
2013-02-26 13:33:00,50.9,50.5,29.75,NE,45,4.0,15.0,99,0.02,,,0.41,meteohub,2013-02-26 18:33:00,
2013-02-26 13:39:00,51.1,50.7,29.75,NE,45,5.0,15.0,99,0.04,,,0.43,meteohub,2013-02-26 18:39:00,
2013-02-26 13:44:00,51.1,50.7,29.74,NE,45,8.0,10.0,99,0.06,,,0.45,meteohub,2013-02-26 18:44:00,
2013-02-26 13:49:00,51.3,50.9,29.73,West,270,6.0,7.0,99,0.05,,,0.45,meteohub,2013-02-26 18:49:00,
2013-02-26 13:54:00,51.6,51.3,29.72,NE,45,7.0,8.0,99,0.06,,,0.46,meteohub,2013-02-26 18:54:00,
2013-02-26 13:59:00,52.0,51.4,29.71,South,180,4.0,10.0,98,0.07,,,0.47,meteohub,2013-02-26 18:59:00,
2013-02-26 14:04:00,52.2,51.6,29.71,SE,135,2.0,10.0,98,0.07,,,0.47,meteohub,2013-02-26 19:04:00,
2013-02-26 14:09:00,52.3,51.8,29.71,NW,315,3.0,12.0,98,0.07,,,0.47,meteohub,2013-02-26 19:09:00,
2013-02-26 14:14:00,52.3,51.8,29.71,East,90,10.0,12.0,98,0.06,,,0.47,meteohub,2013-02-26 19:14:00,
2013-02-26 14:19:00,52.5,52.0,29.70,NW,315,6.0,12.0,98,0.06,,,0.47,meteohub,2013-02-26 19:19:00,
2013-02-26 14:25:00,52.7,52.2,29.69,NE,45,10.0,10.0,98,0.06,,,0.47,meteohub,2013-02-26 19:25:00,
2013-02-26 14:30:00,52.9,52.3,29.69,NE,45,4.0,10.0,98,0.06,,,0.47,meteohub,2013-02-26 19:30:00,
2013-02-26 14:35:00,52.9,52.3,29.69,East,90,4.0,10.0,98,0.06,,,0.47,meteohub,2013-02-26 19:35:00,
2013-02-26 14:40:00,52.9,52.3,29.69,NE,45,4.0,10.0,98,0.05,,,0.47,meteohub,2013-02-26 19:40:00,
2013-02-26 14:45:00,53.1,52.5,29.68,NE,45,4.0,7.0,98,0.02,,,0.47,meteohub,2013-02-26 19:45:00,
2013-02-26 14:50:00,53.2,52.7,29.67,East,90,2.0,9.0,98,0.04,,,0.48,meteohub,2013-02-26 19:50:00,
2013-02-26 14:55:00,53.2,52.7,29.66,West,270,2.0,9.0,98,0.02,,,0.48,meteohub,2013-02-26 19:55:00,
2013-02-26 15:00:00,53.6,52.7,29.65,East,90,4.0,9.0,97,0.01,,,0.48,meteohub,2013-02-26 20:00:00,
2013-02-26 15:05:00,54.0,53.1,29.64,NE,45,3.0,8.0,97,0.02,,,0.50,meteohub,2013-02-26 20:05:00,
2013-02-26 15:10:00,54.3,53.4,29.64,South,180,4.0,8.0,97,0.02,,,0.50,meteohub,2013-02-26 20:10:00,
2013-02-26 15:15:00,54.9,54.0,29.63,NE,45,5.0,8.0,97,0.02,,,0.50,meteohub,2013-02-26 20:15:00,
2013-02-26 15:20:00,55.2,54.3,29.62,East,90,9.0,9.0,97,0.02,,,0.50,meteohub,2013-02-26 20:20:00,
2013-02-26 15:25:00,55.2,54.3,29.63,East,90,3.0,9.0,97,0.02,,,0.50,meteohub,2013-02-26 20:25:00,
2013-02-26 15:30:00,55.2,54.3,29.63,NE,45,3.0,9.0,97,0.02,,,0.50,meteohub,2013-02-26 20:30:00,
2013-02-26 15:35:00,55.4,55.0,29.62,North,0,3.0,9.0,99,0.02,,,0.50,meteohub,2013-02-26 20:35:00,
2013-02-26 15:40:00,55.6,55.2,29.61,NE,45,3.0,9.0,99,0.02,,,0.50,meteohub,2013-02-26 20:40:00,
2013-02-26 15:45:00,55.8,55.4,29.63,East,90,4.0,6.0,99,0.01,,,0.50,meteohub,2013-02-26 20:45:00,
2013-02-26 15:50:00,55.9,55.6,29.63,SE,135,4.0,6.0,99,0.01,,,0.50,meteohub,2013-02-26 20:50:00,
2013-02-26 15:55:00,56.7,56.3,29.62,NE,45,4.0,10.0,99,0.00,,,0.50,meteohub,2013-02-26 20:55:00,
2013-02-26 16:00:00,56.7,56.3,29.62,West,270,3.0,10.0,99,0.00,,,0.50,meteohub,2013-02-26 21:00:00,
2013-02-26 16:05:00,56.7,56.3,29.62,North,0,1.0,10.0,99,0.00,,,0.50,meteohub,2013-02-26 21:05:00,
2013-02-26 16:11:00,56.7,56.3,29.61,NW,315,2.0,8.0,99,0.00,,,0.50,meteohub,2013-02-26 21:11:00,
2013-02-26 16:16:00,56.7,56.3,29.61,North,0,2.0,6.0,99,0.01,,,0.50,meteohub,2013-02-26 21:16:00,
2013-02-26 16:21:00,56.8,56.5,29.62,NE,45,3.0,6.0,99,0.01,,,0.51,meteohub,2013-02-26 21:21:00,
2013-02-26 16:26:00,56.8,56.5,29.61,NE,45,2.0,4.0,99,0.01,,,0.51,meteohub,2013-02-26 21:26:00,
2013-02-26 16:31:00,56.8,56.5,29.61,SW,225,3.0,4.0,99,0.01,,,0.51,meteohub,2013-02-26 21:31:00,
2013-02-26 16:36:00,56.8,56.5,29.61,East,90,1.0,3.0,99,0.02,,,0.52,meteohub,2013-02-26 21:36:00,
2013-02-26 16:41:00,57.2,56.8,29.61,NE,45,2.0,3.0,99,0.02,,,0.52,meteohub,2013-02-26 21:41:00,
2013-02-26 16:46:00,57.4,57.0,29.60,SW,225,2.0,3.0,99,0.02,,,0.52,meteohub,2013-02-26 21:46:00,
2013-02-26 16:51:00,57.6,57.2,29.59,NE,45,4.0,4.0,99,0.02,,,0.52,meteohub,2013-02-26 21:51:00,
2013-02-26 16:57:00,57.9,57.6,29.59,SE,135,3.0,4.0,99,0.02,,,0.52,meteohub,2013-02-26 21:57:00,
2013-02-26 17:02:00,57.9,57.6,29.58,NE,45,2.0,4.0,99,0.02,,,0.52,meteohub,2013-02-26 22:02:00,
2013-02-26 17:07:00,58.1,57.7,29.58,ENE,68,4.0,4.0,99,0.02,,,0.52,meteohub,2013-02-26 22:07:00,
2013-02-26 17:12:00,58.3,57.9,29.58,East,90,2.0,4.0,99,0.02,,,0.52,meteohub,2013-02-26 22:12:00,
2013-02-26 17:17:00,58.3,57.9,29.58,NE,45,2.0,4.0,99,0.01,,,0.52,meteohub,2013-02-26 22:17:00,
2013-02-26 17:22:00,58.5,58.1,29.58,North,0,1.0,4.0,99,0.01,,,0.52,meteohub,2013-02-26 22:22:00,
2013-02-26 17:27:00,58.5,58.1,29.58,NE,45,1.0,2.0,99,0.01,,,0.52,meteohub,2013-02-26 22:27:00,
2013-02-26 17:32:00,58.6,58.3,29.58,SW,225,2.0,2.0,99,0.00,,,0.52,meteohub,2013-02-26 22:32:00,
2013-02-26 17:37:00,58.6,58.3,29.58,South,180,0.0,2.0,99,0.00,,,0.52,meteohub,2013-02-26 22:37:00,
2013-02-26 17:42:00,58.6,58.3,29.58,SW,225,1.0,2.0,99,0.00,,,0.52,meteohub,2013-02-26 22:42:00,
2013-02-26 17:47:00,58.6,58.3,29.58,SW,225,2.0,2.0,99,0.00,,,0.52,meteohub,2013-02-26 22:47:00,
2013-02-26 17:52:00,58.8,58.5,29.59,SW,225,2.0,2.0,99,0.00,,,0.52,meteohub,2013-02-26 22:52:00,
2013-02-26 17:57:00,58.6,58.3,29.60,SW,225,2.0,2.0,99,0.00,,,0.52,meteohub,2013-02-26 22:57:00,
2013-02-26 18:02:00,58.6,58.3,29.59,North,0,2.0,3.0,99,0.00,,,0.52,meteohub,2013-02-26 23:02:00,
2013-02-26 18:07:00,58.3,57.9,29.58,SW,225,2.0,3.0,99,0.00,,,0.52,meteohub,2013-02-26 23:07:00,
2013-02-26 18:12:00,58.3,57.9,29.58,NE,45,2.0,3.0,99,0.00,,,0.52,meteohub,2013-02-26 23:12:00,
2013-02-26 18:17:00,58.3,57.9,29.59,West,270,1.0,3.0,99,0.00,,,0.52,meteohub,2013-02-26 23:17:00,
2013-02-26 18:22:00,58.3,57.9,29.59,West,270,1.0,3.0,99,0.00,,,0.52,meteohub,2013-02-26 23:22:00,
2013-02-26 18:27:00,58.1,57.7,29.59,SW,225,0.0,3.0,99,0.00,,,0.52,meteohub,2013-02-26 23:27:00,
2013-02-26 18:32:00,58.1,57.7,29.59,NE,45,2.0,2.0,99,0.00,,,0.52,meteohub,2013-02-26 23:32:00,
2013-02-26 18:37:00,58.1,57.7,29.59,North,0,0.0,2.0,99,0.00,,,0.52,meteohub,2013-02-26 23:37:00,
2013-02-26 18:42:00,57.7,57.4,29.60,SE,135,1.0,2.0,99,0.00,,,0.52,meteohub,2013-02-26 23:42:00,
2013-02-26 18:47:00,57.7,57.4,29.60,NE,45,1.0,2.0,99,0.00,,,0.52,meteohub,2013-02-26 23:47:00,
2013-02-26 18:52:00,57.7,57.4,29.60,NE,45,0.0,2.0,99,0.00,,,0.52,meteohub,2013-02-26 23:52:00,
2013-02-26 18:57:00,57.7,57.4,29.60,NE,45,0.0,2.0,99,0.00,,,0.52,meteohub,2013-02-26 23:57:00,
2013-02-26 19:03:00,57.7,57.4,29.59,NE,45,0.0,2.0,99,0.00,,,0.52,meteohub,2013-02-27 00:03:00,
2013-02-26 19:08:00,57.4,57.0,29.60,NE,45,0.0,1.0,99,0.00,,,0.00,meteohub,2013-02-27 00:08:00,
2013-02-26 19:13:00,57.2,56.8,29.60,SW,225,0.0,0.0,99,0.00,,,0.00,meteohub,2013-02-27 00:13:00,
2013-02-26 19:18:00,57.2,56.8,29.60,NE,45,0.0,1.0,99,0.00,,,0.00,meteohub,2013-02-27 00:18:00,
2013-02-26 19:23:00,57.0,56.7,29.61,NE,45,0.0,1.0,99,0.00,,,0.00,meteohub,2013-02-27 00:23:00,
2013-02-26 19:28:00,56.8,56.5,29.60,NE,45,0.0,1.0,99,0.00,,,0.00,meteohub,2013-02-27 00:28:00,
2013-02-26 19:33:00,56.7,56.3,29.60,NE,45,0.0,1.0,99,0.00,,,0.00,meteohub,2013-02-27 00:33:00,
2013-02-26 19:38:00,56.5,56.1,29.60,NE,45,0.0,1.0,99,0.00,,,0.00,meteohub,2013-02-27 00:38:00,
2013-02-26 19:43:00,56.7,56.3,29.61,NE,45,0.0,0.0,99,0.00,,,0.00,meteohub,2013-02-27 00:43:00,
2013-02-26 19:48:00,56.5,56.1,29.61,SW,225,0.0,0.0,99,0.00,,,0.00,meteohub,2013-02-27 00:48:00,
2013-02-26 19:53:00,56.3,55.9,29.61,SW,225,0.0,0.0,99,0.00,,,0.00,meteohub,2013-02-27 00:53:00,
2013-02-26 19:58:00,56.1,55.8,29.61,SW,225,0.0,1.0,99,0.00,,,0.00,meteohub,2013-02-27 00:58:00,
2013-02-26 20:03:00,55.9,55.6,29.62,SW,225,0.0,1.0,99,0.00,,,0.00,meteohub,2013-02-27 01:03:00,
2013-02-26 20:09:00,55.9,55.6,29.62,SW,225,0.0,1.0,99,0.00,,,0.00,meteohub,2013-02-27 01:09:00,
2013-02-26 20:14:00,55.8,55.4,29.62,SW,225,0.0,0.0,99,0.00,,,0.00,meteohub,2013-02-27 01:14:00,
2013-02-26 20:19:00,55.6,55.2,29.62,SW,225,0.0,0.0,99,0.00,,,0.00,meteohub,2013-02-27 01:19:00,
2013-02-26 20:24:00,55.6,55.2,29.62,SW,225,0.0,0.0,99,0.00,,,0.00,meteohub,2013-02-27 01:24:00,
2013-02-26 20:29:00,55.4,55.0,29.64,SW,225,0.0,0.0,99,0.00,,,0.00,meteohub,2013-02-27 01:29:00,
2013-02-26 20:34:00,55.8,55.4,29.64,West,270,0.0,0.0,99,0.00,,,0.00,meteohub,2013-02-27 01:34:00,
2013-02-26 20:39:00,55.9,55.6,29.65,SW,225,0.0,0.0,99,0.00,,,0.00,meteohub,2013-02-27 01:39:00,
2013-02-26 20:44:00,55.6,55.2,29.65,SW,225,0.0,1.0,99,0.00,,,0.00,meteohub,2013-02-27 01:44:00,
2013-02-26 20:49:00,55.4,55.0,29.64,SW,225,2.0,2.0,99,0.00,,,0.00,meteohub,2013-02-27 01:49:00,
2013-02-26 20:54:00,55.4,55.0,29.64,SW,225,0.0,2.0,99,0.00,,,0.00,meteohub,2013-02-27 01:54:00,
2013-02-26 20:59:00,55.8,55.4,29.65,SW,225,2.0,2.0,99,0.00,,,0.00,meteohub,2013-02-27 01:59:00,
2013-02-26 21:04:00,55.9,55.6,29.65,West,270,2.0,2.0,99,0.00,,,0.00,meteohub,2013-02-27 02:04:00,
2013-02-26 21:09:00,56.1,55.8,29.65,West,270,2.0,2.0,99,0.00,,,0.00,meteohub,2013-02-27 02:09:00,
2013-02-26 21:14:00,55.6,55.2,29.66,North,0,2.0,2.0,99,0.00,,,0.00,meteohub,2013-02-27 02:14:00,
2013-02-26 21:19:00,55.2,54.3,29.67,NW,315,2.0,2.0,97,0.00,,,0.00,meteohub,2013-02-27 02:19:00,
2013-02-26 21:24:00,54.9,54.0,29.67,SW,225,4.0,4.0,97,0.00,,,0.00,meteohub,2013-02-27 02:24:00,
2013-02-26 21:29:00,54.5,53.6,29.68,East,90,2.0,4.0,97,0.00,,,0.00,meteohub,2013-02-27 02:29:00,
2013-02-26 21:34:00,54.3,53.4,29.67,South,180,1.0,4.0,97,0.00,,,0.00,meteohub,2013-02-27 02:34:00,
2013-02-26 21:39:00,54.0,53.1,29.68,SW,225,2.0,4.0,97,0.00,,,0.00,meteohub,2013-02-27 02:39:00,
2013-02-26 21:44:00,53.6,52.7,29.68,East,90,2.0,4.0,97,0.00,,,0.00,meteohub,2013-02-27 02:44:00,
2013-02-26 21:50:00,53.2,52.7,29.68,North,0,2.0,4.0,98,0.00,,,0.00,meteohub,2013-02-27 02:50:00,
2013-02-26 21:55:00,52.9,52.3,29.68,SE,135,2.0,4.0,98,0.00,,,0.00,meteohub,2013-02-27 02:55:00,
2013-02-26 22:00:00,52.5,52.0,29.68,South,180,1.0,4.0,98,0.00,,,0.00,meteohub,2013-02-27 03:00:00,
2013-02-26 22:05:00,52.2,51.6,29.68,East,90,2.0,4.0,98,0.00,,,0.00,meteohub,2013-02-27 03:05:00,
2013-02-26 22:10:00,51.8,51.3,29.68,SE,135,0.0,4.0,98,0.00,,,0.00,meteohub,2013-02-27 03:10:00,
2013-02-26 22:15:00,51.4,51.1,29.68,West,270,2.0,2.0,99,0.00,,,0.00,meteohub,2013-02-27 03:15:00,
2013-02-26 22:20:00,51.3,50.9,29.68,SE,135,1.0,2.0,99,0.00,,,0.00,meteohub,2013-02-27 03:20:00,
2013-02-26 22:25:00,51.1,50.7,29.68,NW,315,0.0,2.0,99,0.00,,,0.00,meteohub,2013-02-27 03:25:00,
2013-02-26 22:30:00,50.7,50.4,29.68,West,270,0.0,2.0,99,0.00,,,0.00,meteohub,2013-02-27 03:30:00,
2013-02-26 22:35:00,50.5,50.2,29.68,West,270,0.0,2.0,99,0.00,,,0.00,meteohub,2013-02-27 03:35:00,
2013-02-26 22:40:00,50.0,49.6,29.68,West,270,0.0,1.0,99,0.00,,,0.00,meteohub,2013-02-27 03:40:00,
2013-02-26 22:45:00,49.6,49.5,29.68,SW,225,1.0,1.0,99,0.00,,,0.00,meteohub,2013-02-27 03:45:00,
2013-02-26 22:50:00,49.3,49.1,29.68,West,270,0.0,1.0,99,0.00,,,0.00,meteohub,2013-02-27 03:50:00,
2013-02-26 22:55:00,49.1,48.9,29.67,East,90,1.0,2.0,99,0.00,,,0.00,meteohub,2013-02-27 03:55:00,
2013-02-26 23:00:00,48.9,48.7,29.66,NW,315,2.0,2.0,99,0.00,,,0.00,meteohub,2013-02-27 04:00:00,
2013-02-26 23:05:00,48.9,48.7,29.66,NW,315,2.0,2.0,99,0.00,,,0.00,meteohub,2013-02-27 04:05:00,
2013-02-26 23:11:00,48.6,48.4,29.66,SW,225,0.0,2.0,99,0.00,,,0.00,meteohub,2013-02-27 04:11:00,
2013-02-26 23:16:00,48.4,48.2,29.66,NE,45,0.0,2.0,99,0.00,,,0.00,meteohub,2013-02-27 04:16:00,
2013-02-26 23:21:00,48.0,47.8,29.67,SW,225,0.0,2.0,99,0.00,,,0.00,meteohub,2013-02-27 04:21:00,
2013-02-26 23:26:00,47.8,47.7,29.67,SW,225,0.0,1.0,99,0.00,,,0.00,meteohub,2013-02-27 04:26:00,
2013-02-26 23:31:00,47.5,47.3,29.67,SW,225,0.0,1.0,99,0.00,,,0.00,meteohub,2013-02-27 04:31:00,
2013-02-26 23:36:00,47.3,47.1,29.66,SW,225,0.0,1.0,99,0.00,,,0.00,meteohub,2013-02-27 04:36:00,
2013-02-26 23:41:00,46.8,46.6,29.66,SW,225,0.0,0.0,99,0.00,,,0.00,meteohub,2013-02-27 04:41:00,
2013-02-26 23:46:00,46.6,46.4,29.66,SW,225,1.0,0.0,99,0.00,,,0.00,meteohub,2013-02-27 04:46:00,
2013-02-26 23:52:00,46.4,46.2,29.66,North,0,0.0,2.0,99,0.00,,,0.00,meteohub,2013-02-27 04:52:00,
2013-02-26 23:57:00,46.0,45.3,29.66,East,90,1.0,2.0,97,0.00,,,0.00,meteohub,2013-02-27 04:57:00,